Regional Weather Roundup
Issued by NWS San Diego, CA

Home | Current Version | Previous Version | Text Only | Print | Product List | Glossary On
Versions: 1 2 3 4 5 6 7 8 9 10 11 12 13 14 15 16 17 18 19 20 21 22 23 24 25 26 27 28 29 30 31 32 33 34 35 36 37 38 39 40 41 42 43 44 45 46 47 48 49 50
000
ASUS46 KSGX 211411
RWRSGX

SAN DIEGO HOURLY WEATHER ROUNDUP
NATIONAL WEATHER SERVICE SAN DIEGO CA
700 AM PDT MON AUG 21 2017

NOTE: "FAIR" INDICATES FEW OR NO CLOUDS BELOW 12,000 FEET WITH NO
SIGNIFICANT WEATHER AND/OR OBSTRUCTIONS TO VISIBILITY.

CAZ042-043-060-061-PZZ750-775-211500-

GREATER SAN DIEGO AREA

CITY           SKY/WX    TMP DP  RH WIND       PRES   REMARKS
SAN DIEGO AP   MOCLDY    71  59  65 CALM      29.99R
NATIONAL CITY    N/A     69  63  81 CALM      29.99R
IMPERIAL BEACH MOCLDY    68  60  75 W5        29.98R
BROWN FIELD    CLOUDY    67  61  81 CALM      29.98R
MIRAMAR MCAS   CLOUDY    71  58  63 CALM      29.98R
MONTGOMERY FLD MOCLDY    70  58  65 CALM      29.98R
GILLESPIE FLD  CLOUDY    68  59  73 CALM      29.99R

$$

NORTH SAN DIEGO COUNTY

CITY           SKY/WX    TMP DP  RH WIND       PRES   REMARKS
CAMP PENDLETON CLOUDY    57  32  38 N5        29.98R
OCEANSIDE AP   CLOUDY    68  61  78 VRB3      29.97R
OCEANSIDE HBR    N/A     66  61  85 E3        30.00R
VISTA            N/A     65  59  83 CALM      29.95R
CARLSBAD       CLOUDY    67  60  78 N5        29.97R
DEL MAR          N/A     65  61  85 CALM      29.99R
LA JOLLA SCRIP   N/A     68  63  85 S2        29.97R
FALLBROOK        N/A     64  64  98 CALM      30.00R
ESCONDIDO        N/A     66  60  81 CALM      29.99R
POWAY            N/A     65  59  80 CALM      29.98R

$$

EAST SAN DIEGO COUNTY

CITY           SKY/WX    TMP DP  RH WIND       PRES   REMARKS
RAMONA         CLOUDY    62  59  90 CALM      29.99R
SANTEE LAKES     N/A     67  60  79 CALM      29.96R
LA MESA          N/A     66  60  80 CALM      29.90R
JAMUL            N/A     62  58  86 CALM      29.97R
DESCANSO N       N/A     64  37  36 CALM      29.85R
CAMPO            N/A     53  41  63 NE6       29.99R

$$

ORANGE COUNTY AND THE LOS ANGELES BASIN

CITY           SKY/WX    TMP DP  RH WIND       PRES   REMARKS
JOHN WAYNE AP  CLOUDY    68  60  75 CALM      29.98R
LAKE FOREST FR   N/A     63  56  77 W1        29.88R
HUNTINGTON BCH   N/A     67  62  83 CALM      29.99R
LOS ALAMITOS   CLOUDY    68  60  76 CALM      29.98R
FULLERTON      CLOUDY    69  61  75 CALM      29.97R
LONG BEACH     CLOUDY    69  61  75 VRB3      29.98R
L.A. AP        CLOUDY    69  61  75 VRB3      29.98R
L.A. DOWNTOWN  CLOUDY    70  60  70 CALM      29.97R

$$

THE INLAND EMPIRE

CITY           SKY/WX    TMP DP  RH WIND       PRES   REMARKS
CORONA         CLOUDY    66  60  81 N5        30.00R
CHINO          CLOUDY    68  60  75 MISG      30.00R HAZE
ONTARIO        CLOUDY    65  60  84 CALM      30.00R HAZE
RIVERSIDE AP   CLOUDY    65  61  87 NE3       30.00R FOG
MORENO VALLEY    N/A     62  61  97 CALM      28.11R
MARCH ARB      CLOUDY    62  62 100 CALM      30.00R FOG
HORSETHIEF CYN   N/A     61  56  84 NW1       29.97R
PERRIS           N/A     62  61  95 W1        30.01R
HEMET EAST       N/A     57  51  80 CALM      30.01R
FRENCH VALLEY  CLOUDY    61  59  94 CALM      30.01R
TEMECULA         N/A     61  60  96 CALM      30.04R

$$

SAN BERNARDINO AND RIVERSIDE COUNTY MOUNTAINS

CITY           SKY/WX    TMP DP  RH WIND       PRES   REMARKS
BIG BEAR AP    CLEAR     48  36  61 CALM      30.25R
PINE COVE        N/A     60  37  42 CALM      29.87R

$$

SOUTHERN DESERT INCLUDING THE COACHELLA VALLEY

CITY           SKY/WX    TMP DP  RH WIND       PRES   REMARKS
PALM SPRINGS   CLEAR     76  59  55 CALM      29.87R
THOUSAND PALMS   N/A     84  48  28 W8        29.82R
PALM DESERT      N/A     75  59  56 CALM      31.93S
THERMAL        CLEAR     73  57  57 CALM      29.82R
BLYTHE         MOSUNNY   83  57  41 E3        29.84R
IMPERIAL AP    CLEAR     75  51  43 CALM      29.82R
EL CENTRO NAS  PTCLDY    74  41  30 NE3       29.84R
YUMA AZ        MOSUNNY   85  66  53 CALM      29.83R
MEXICALI       CLEAR     75  64  69 CALM      29.83R

$$

UPPER DESERT

CITY           SKY/WX    TMP DP  RH WIND       PRES   REMARKS
VICTORVILLE AP CLEAR     63  46  55 CALM      30.04R
HESPERIA         N/A     66  44  45 W1        29.99R
PALMDALE       CLEAR     65  49  56 CALM      30.01R
LANCASTER      CLEAR     60  41  49 CALM      30.01R
EDWARDS AFB    PTCLDY    62  45  55 CALM      29.99R
DAGGETT        CLEAR     72  47  40 W6        29.97R
29 PALMS N     CLEAR     77  43  29 W6        30.02R
NEEDLES        CLOUDY    88  61  40 CALM      29.89R

$$

REGIONAL REPORTS

CITY           SKY/WX    TMP DP  RH WIND       PRES   REMARKS
SANTA BARBARA  CLOUDY    66  61  84 VRB3      29.98R
SANDBERG       CLEAR     66  42  41 SW5       30.12R
LAS VEGAS NV   CLOUDY    86  50  28 SW9       29.99R
PHOENIX AZ     MOSUNNY   85  57  38 E10       29.90R
TIJUANA        CLOUDY    66  61  82 CALM      30.00R
ENSENADA NW      N/A     66  32  28 CALM      29.96R

$$

OFFSHORE ISLANDS

CITY           SKY/WX    TMP DP  RH WIND       PRES   REMARKS
CATALINA ARPT  CLOUDY    60  56  86 E6        30.01R
SAN NICOLAS IS CLOUDY    66  58  75 CALM      29.99R

$$

MARINE AND OFFSHORE BUOY REPORTS

STATION/POSITION SKY/WX   TEMP    WIND        PRES    VSBY  SWELL
                          AIR SEA DIR/SP/G                  HT/PER/DIR
                          (F)     (DEG/KT/KT) (MB)    (MI)  (FT/S/D)
TANNER BANKS               65 67  190/  2/  4 1014.2          5/230/13
S CLEMENTE BASIN           67 70  200/  4/  6 1014.6          3/220/13
SAN NICOLAS IS.               64                N/A           3/250/11
SO. S. ROSA ISLA           64 64  130/  4/  6 1014.5          5/200/13
W. S. BARBARA CH           63 62   80/  6/  8 1014.8R
M. S. BARBARA CH           66 66   80/  4/  6 1015.7R
S. MONICA BASIN               70  220/  2/  2 1014.8R
S PEDRO CHANNEL               69                N/A           2/190/13
CMP PENDLETON NS              69                N/A           2/210/13
OCEANSIDE OFFSHR              71                N/A           2/210/13
TORREY PINES OTR              72                N/A           2/210/13
SAN DIEGO BAY                 74              1015.3R
POINT LOMA SOUTH              69                N/A           2/210/13

$$





USA.gov is the U.S. government's official web portal to all federal, state and local government web resources and services.